Date String (YYYY-MM-DD hh:mm:ss) UTC,Instrument flags,absolute air pressure of the measurement (hPa),sample flow rate (lpm),inlet stack bypass flow (lpm),air temperature of the measurement (°C),ambient temperature measured by the external sensor (°C),aerosol sample conditioner tube jacket temperature (°C),OPC LED temperature (°C),internal box temperature (°C),relative humidity of the measurement (%),span deviation,mass concentration of particles derived from Lorenz-Mie calculation of OPC scattering (μg/m³),mass concentration of particles derived from Lorenz-Mie calculation of OPC scattering (μg/m³),mass concentration of particles derived from Lorenz-Mie calculation of OPC scattering (μg/m³)
DateTimeUTC,F1_M11,P_M11,Q1_M11,Q2_M11,T1_M11,T2_M11,T3_M11,T4_M11,T5_M11,U1_M11,ZSPAN_M11,X0_M11,X2_M11,X1_M11
2023-12-23 22:00:00,SystemResetWarning,0818.1,5.00,000.00,025.7,025.0,000.0,033.9,027.1,13.9,0000.0,0005.07,0002.72,0002.28
2023-12-23 22:01:00,SystemResetWarning,0818.1,5.00,000.00,025.7,025.0,000.0,033.9,027.1,13.9,0000.0,0005.24,0002.74,0002.29
2023-12-23 22:02:00,SystemResetWarning,0818.2,5.00,000.00,025.7,025.1,000.0,033.9,027.1,14.0,0000.0,0005.16,0002.73,0002.29
2023-12-23 22:03:00,SystemResetWarning,0818.2,5.00,000.00,025.7,025.1,000.0,034.0,027.1,14.0,0000.0,0005.24,0002.79,0002.32
2023-12-23 22:04:00,SystemResetWarning,0818.2,5.00,000.00,025.7,025.1,000.0,034.0,027.1,13.8,0000.0,0004.68,0002.79,0002.34
2023-12-23 22:05:00,SystemResetWarning,0818.2,5.00,000.00,025.7,025.1,000.0,034.0,027.2,13.8,0000.0,0004.52,0002.76,0002.34
2023-12-23 22:06:00,SystemResetWarning,0818.3,5.00,000.00,025.7,025.1,000.0,034.0,027.2,13.9,0000.0,0004.63,0002.76,0002.35
2023-12-23 22:07:00,SystemResetWarning,0818.3,5.00,000.00,025.7,025.1,000.0,034.0,027.2,13.9,0000.0,0004.74,0002.80,0002.38
2023-12-23 22:08:00,SystemResetWarning,0818.3,4.99,000.00,025.8,025.1,000.0,034.0,027.2,13.9,0000.0,0004.83,0002.84,0002.40
2023-12-23 22:09:00,SystemResetWarning,0818.3,5.00,000.00,025.8,025.1,000.0,034.0,027.2,13.9,0000.0,0005.12,0002.88,0002.43
2023-12-23 22:10:00,SystemResetWarning,0818.3,5.00,000.00,025.8,025.1,000.0,034.0,027.2,13.9,0000.0,0005.25,0002.94,0002.44
2023-12-23 22:11:00,SystemResetWarning,0818.3,5.00,000.00,025.8,025.2,000.0,034.0,027.3,13.9,0000.0,0004.97,0002.97,0002.45
2023-12-23 22:12:00,SystemResetWarning,0818.3,5.00,000.00,025.8,025.2,000.0,034.0,027.3,13.9,0000.0,0004.64,0002.93,0002.45
2023-12-23 22:13:00,SystemResetWarning,0818.4,5.00,000.00,025.8,025.2,000.0,034.0,027.3,13.9,0000.0,0004.64,0002.92,0002.46
2023-12-23 22:14:00,SystemResetWarning,0818.4,5.00,000.00,025.8,025.2,000.0,034.1,027.3,13.9,0000.0,0004.53,0002.88,0002.45
2023-12-23 22:15:00,SystemResetWarning,0818.4,5.00,000.00,025.8,025.2,000.0,034.1,027.3,13.9,0000.0,0004.78,0002.83,0002.44
2023-12-23 22:16:00,SystemResetWarning,0818.4,5.00,000.00,025.8,025.2,000.0,034.1,027.2,13.8,0000.0,0004.89,0002.85,0002.46
2023-12-23 22:17:00,SystemResetWarning,0818.4,5.00,000.00,025.8,025.2,000.0,034.1,027.2,13.8,0000.0,0005.36,0002.89,0002.48
2023-12-23 22:18:00,SystemResetWarning,0818.4,5.00,000.00,025.8,025.2,000.0,034.1,027.2,13.8,0000.0,0005.82,0002.96,0002.50
2023-12-23 22:19:00,SystemResetWarning,0818.4,5.00,000.00,025.8,025.2,000.0,034.1,027.3,13.9,0000.0,0006.08,0002.97,0002.52
2023-12-23 22:20:00,SystemResetWarning,0818.4,5.00,000.00,025.8,025.2,000.0,034.1,027.3,13.9,0000.0,0006.08,0002.97,0002.52
2023-12-23 22:21:00,SystemResetWarning,0818.4,5.00,000.00,025.8,025.2,000.0,034.1,027.3,13.9,0000.0,0006.41,0002.95,0002.54
2023-12-23 22:22:00,SystemResetWarning,0818.4,5.00,000.00,025.9,025.2,000.0,034.1,027.3,13.9,0000.0,0007.21,0002.95,0002.56
2023-12-23 22:23:00,SystemResetWarning,0818.4,5.00,000.00,025.9,025.2,000.0,034.1,027.3,13.9,0000.0,0007.32,0003.00,0002.58
2023-12-23 22:24:00,SystemResetWarning,0818.4,5.00,000.00,025.9,025.2,000.0,034.1,027.3,13.9,0000.0,0007.34,0003.00,0002.59
2023-12-23 22:25:00,SystemResetWarning,0818.4,5.00,000.00,025.9,025.2,000.0,034.2,027.3,13.9,0000.0,0007.31,0003.01,0002.61
2023-12-23 22:26:00,SystemResetWarning,0818.4,5.00,000.00,025.9,025.2,000.0,034.2,027.3,13.9,0000.0,0006.93,0003.07,0002.66
2023-12-23 22:27:00,SystemResetWarning,0818.4,5.00,000.00,025.9,025.2,000.0,034.2,027.3,13.9,0000.0,0006.99,0003.10,0002.68
2023-12-23 22:28:00,SystemResetWarning,0818.4,5.00,000.00,025.9,025.2,000.0,034.2,027.3,13.9,0000.0,0006.48,0003.11,0002.69
2023-12-23 22:29:00,SystemResetWarning,0818.4,5.00,000.00,025.9,025.2,000.0,034.2,027.3,14.0,0000.0,0005.97,0003.09,0002.70
2023-12-23 22:30:00,SystemResetWarning,0818.4,5.01,000.00,025.9,025.3,000.0,034.2,027.3,14.0,0000.0,0006.69,0003.07,0002.70
2023-12-23 22:31:00,SystemResetWarning,0818.4,5.00,000.00,025.9,025.3,000.0,034.2,027.3,14.0,0000.0,0006.67,0003.10,0002.73
2023-12-23 22:32:00,SystemResetWarning,0818.4,5.01,000.00,025.9,025.3,000.0,034.2,027.3,14.0,0000.0,0006.69,0003.12,0002.76
2023-12-23 22:33:00,SystemResetWarning,0818.4,4.98,000.00,025.9,025.3,000.0,034.2,027.4,13.9,0000.0,0005.74,0003.12,0002.77
2023-12-23 22:34:00,SystemResetWarning,0818.4,5.01,000.00,025.9,025.3,000.0,034.2,027.4,13.9,0000.0,0005.90,0003.12,0002.77
2023-12-23 22:35:00,SystemResetWarning,0818.4,5.01,000.00,025.9,025.3,000.0,034.2,027.4,13.9,0000.0,0006.47,0003.17,0002.80
2023-12-23 22:36:00,SystemResetWarning,0818.5,5.00,000.00,025.9,025.3,000.0,034.2,027.4,13.9,0000.0,0007.40,0003.20,0002.82
2023-12-23 22:37:00,SystemResetWarning,0818.5,5.00,000.00,026.0,025.3,000.0,034.2,027.4,13.9,0000.0,0007.52,0003.21,0002.82
2023-12-23 22:38:00,SystemResetWarning,0818.5,4.99,000.00,026.0,025.3,000.0,034.2,027.4,13.9,0000.0,0008.02,0003.23,0002.83
2023-12-23 22:39:00,SystemResetWarning,0818.5,5.02,000.00,026.0,025.3,000.0,034.2,027.4,13.9,0000.0,0007.97,0003.23,0002.86
2023-12-23 22:40:00,SystemResetWarning,0818.5,5.01,000.00,026.0,025.3,000.0,034.2,027.4,13.9,0000.0,0008.03,0003.26,0002.88
2023-12-23 22:41:00,SystemResetWarning,0818.5,5.00,000.00,026.0,025.4,000.0,034.3,027.4,13.8,0000.0,0007.61,0003.29,0002.90
2023-12-23 22:42:00,SystemResetWarning,0818.6,4.99,000.00,026.0,025.4,000.0,034.3,027.5,13.8,0000.0,0007.53,0003.34,0002.93
2023-12-23 22:43:00,SystemResetWarning,0818.6,4.99,000.00,026.0,025.4,000.0,034.3,027.5,13.8,0000.0,0007.34,0003.35,0002.96
2023-12-23 22:44:00,SystemResetWarning,0818.6,5.00,000.00,026.0,025.4,000.0,034.3,027.5,13.8,0000.0,0007.33,0003.35,0002.96
2023-12-23 22:45:00,SystemResetWarning,0818.6,5.01,000.00,026.0,025.4,000.0,034.3,027.5,13.8,0000.0,0007.11,0003.34,0002.97
2023-12-23 22:46:00,SystemResetWarning,0818.6,5.00,000.00,026.0,025.4,000.0,034.3,027.5,13.8,0000.0,0006.68,0003.31,0002.96
2023-12-23 22:47:00,SystemResetWarning,0818.6,4.99,000.00,026.1,025.4,000.0,034.3,027.5,13.7,0000.0,0005.86,0003.28,0002.96
2023-12-23 22:48:00,SystemResetWarning,0818.6,4.99,000.00,026.1,025.4,000.0,034.3,027.5,13.7,0000.0,0006.69,0003.30,0002.95
2023-12-23 22:49:00,SystemResetWarning,0818.7,5.01,000.00,026.1,025.4,000.0,034.3,027.5,13.7,0000.0,0005.71,0003.28,0002.95
2023-12-23 22:50:00,SystemResetWarning,0818.7,5.01,000.00,026.1,025.4,000.0,034.3,027.6,13.7,0000.0,0006.91,0003.30,0002.95
2023-12-23 22:51:00,SystemResetWarning,0818.7,5.00,000.00,026.1,025.4,000.0,034.4,027.6,13.7,0000.0,0007.39,0003.29,0002.95
2023-12-23 22:52:00,SystemResetWarning,0818.7,4.99,000.00,026.1,025.4,000.0,034.4,027.6,13.7,0000.0,0007.71,0003.31,0002.95
2023-12-23 22:53:00,SystemResetWarning,0818.7,4.99,000.00,026.1,025.4,000.0,034.4,027.6,13.7,0000.0,0007.70,0003.29,0002.96
2023-12-23 22:54:00,SystemResetWarning,0818.7,5.01,000.00,026.1,025.5,000.0,034.4,027.6,13.7,0000.0,0007.64,0003.27,0002.96
2023-12-23 22:55:00,SystemResetWarning,0818.7,5.01,000.00,026.2,025.5,000.0,034.4,027.6,13.7,0000.0,0007.75,0003.28,0002.96
2023-12-23 22:56:00,SystemResetWarning,0818.7,4.98,000.00,026.2,025.5,000.0,034.4,027.6,13.7,0000.0,0008.01,0003.29,0002.97
2023-12-23 22:57:00,SystemResetWarning,0818.8,5.00,000.00,026.2,025.5,000.0,034.4,027.6,13.7,0000.0,0008.13,0003.32,0003.00
2023-12-23 22:58:00,SystemResetWarning,0818.8,5.00,000.00,026.2,025.5,000.0,034.4,027.6,13.7,0000.0,0008.08,0003.35,0003.03
2023-12-23 22:59:00,SystemResetWarning,0818.8,5.00,000.00,026.2,025.5,000.0,034.4,027.6,13.7,0000.0,0007.53,0003.36,0003.05
